This is the latest recevied weather packets stored in our database for station/object N2PUI. If no packets are shown the sender has not sent any weather packets the latest 1 day(s).
| Time | Temp. | Humidity | Pressure | Rain* | Wind** | Luminosity | Snow |
|---|---|---|---|---|---|---|---|
| 1777989155 | 20.56° C | 55% | 1007.4 hPa | 0 mm | 3.13 m/s, 234° | 574 W/m² | - |
| 1777988850 | 20° C | 55% | 1007.4 hPa | 0 mm | 2.24 m/s, 169° | 559 W/m² | - |
| 1777988548 | 20° C | 57% | 1007.5 hPa | 0 mm | 1.34 m/s, 180° | 211 W/m² | - |
| 1777988245 | 20° C | 56% | 1007.4 hPa | 0 mm | 1.79 m/s, 187° | 225 W/m² | - |
| 1777987941 | 20° C | 57% | 1007.5 hPa | 0 mm | 2.24 m/s, 200° | 225 W/m² | - |
| 1777987637 | 20° C | 55% | 1007.6 hPa | 0 mm | 3.58 m/s, 234° | 263 W/m² | - |
| 1777987334 | 20° C | 56% | 1007.8 hPa | 0 mm | 1.34 m/s, 154° | 511 W/m² | - |
| 1777987032 | 20° C | 57% | 1007.6 hPa | 0 mm | 3.13 m/s, 176° | 481 W/m² | - |
| 1777986729 | 19.44° C | 57% | 1007.6 hPa | 0 mm | 1.34 m/s, 165° | 428 W/m² | - |
| 1777986427 | 19.44° C | 58% | 1007.8 hPa | 0 mm | 1.34 m/s, 157° | 415 W/m² | - |
| 1777986125 | 18.89° C | 59% | 1007.7 hPa | 0 mm | 1.34 m/s, 269° | 372 W/m² | - |
| 1777985821 | 18.33° C | 61% | 1007.5 hPa | 0 mm | 1.34 m/s, 123° | 362 W/m² | - |
| 1777985519 | 17.78° C | 63% | 1007.8 hPa | 0 mm | 1.34 m/s, 180° | 373 W/m² | - |
| 1777985215 | 17.78° C | 64% | 1007.9 hPa | 0 mm | 0 m/s | 176 W/m² | - |
| 1777984911 | 17.22° C | 64% | 1008.1 hPa | 0 mm | 0.89 m/s, 162° | 158 W/m² | - |
| 1777984607 | 17.22° C | 63% | 1008.1 hPa | 0 mm | 2.68 m/s, 204° | 134 W/m² | - |
| 1777984304 | 17.22° C | 63% | 1008.2 hPa | 0 mm | 2.24 m/s, 183° | 97 W/m² | - |
| 1777984000 | 17.22° C | 64% | 1008.2 hPa | 0 mm | 1.34 m/s, 219° | 75 W/m² | - |
| 1777983697 | 17.22° C | 63% | 1008.1 hPa | 0 mm | 0 m/s | 80 W/m² | - |
| 1777983388 | 17.22° C | 62% | 1008.3 hPa | 0 mm | 1.79 m/s, 230° | 88 W/m² | - |
| 1777983080 | 17.22° C | 63% | 1008 hPa | 0 mm | 0.45 m/s, 211° | 73 W/m² | - |
| 1777982775 | 17.22° C | 63% | 1007.9 hPa | 0 mm | 0.89 m/s, 193° | 75 W/m² | - |
| 1777982471 | 17.22° C | 62% | 1007.8 hPa | 0 mm | 1.34 m/s, 131° | 78 W/m² | - |
| 1777982166 | 17.22° C | 62% | 1007.8 hPa | 0 mm | 1.79 m/s, 171° | 73 W/m² | - |
| 1777981864 | 17.22° C | 63% | 1008 hPa | 0 mm | 0.45 m/s, 186° | 111 W/m² | - |
* Rain latest hour (hover to see other rain measurements)
** Current wind speed in m/s (hover to see current wind gust speed)